| time (UTC) | temp C | wind direction | speed KPH | gust KPH | rain 1hr cm | rain 24hr cm | rain mn cm | humidity % | barometer mb |
| 20260502121204 | 11 | 322 | 3.2 | 8.0 | 0.00 | 0.00 | 0.00 | 89 | 1012.5 |
| 20260502120703 | 11 | 0 | 4.8 | 11.3 | 0.00 | 0.00 | 0.00 | 89 | 1012.3 |
| 20260502120204 | 12 | 314 | 3.2 | 4.8 | 0.00 | 0.00 | 0.00 | 88 | 1012.5 |
| 20260502113703 | 12 | 304 | 3.2 | 4.8 | 0.00 | 0.00 | 0.00 | 87 | 1012.5 |
| 20260502112703 | 13 | 297 | 1.6 | 4.8 | 0.00 | 0.00 | 0.00 | 87 | 1012.4 |
| 20260502111704 | 13 | 320 | 3.2 | 8.0 | 0.00 | 0.00 | 0.00 | 86 | 1012.3 |
| 20260502111204 | 14 | 277 | 4.8 | 11.3 | 0.00 | 0.00 | 0.00 | 86 | 1012.2 |
| 20260502110704 | 13 | 281 | 1.6 | 8.0 | 0.00 | 0.00 | 0.00 | 86 | 1012.3 |
| 20260502110204 | 14 | 48 | 3.2 | 4.8 | 0.00 | 0.00 | 0.00 | 86 | 1012.4 |
| 20260502105703 | 13 | 146 | 4.8 | 9.7 | 0.00 | 0.00 | 0.00 | 87 | 1012.4 |
| 20260502105204 | 13 | 56 | 4.8 | 11.3 | 0.00 | 0.00 | 0.00 | 88 | 1012.4 |
| 20260502104704 | 13 | 76 | 3.2 | 9.7 | 0.00 | 0.00 | 0.00 | 89 | 1012.4 |
| 20260502104203 | 12 | 109 | 1.6 | 4.8 | 0.00 | 0.00 | 0.00 | 89 | 1012.4 |
| 20260502103703 | 12 | 149 | 1.6 | 4.8 | 0.00 | 0.00 | 0.00 | 89 | 1012.4 |
| 20260502103203 | 12 | 84 | 1.6 | 4.8 | 0.00 | 0.00 | 0.00 | 90 | 1012.5 |
| 20260502102703 | 12 | 223 | 1.6 | 4.8 | 0.00 | 0.00 | 0.00 | 91 | 1012.6 |
| 20260502102204 | 12 | 202 | 3.2 | 4.8 | 0.00 | 0.00 | 0.00 | 91 | 1012.7 |
| 20260502101705 | 12 | 149 | 4.8 | 11.3 | 0.00 | 0.00 | 0.00 | 91 | 1012.8 |
| 20260502101204 | 12 | 195 | 3.2 | 9.7 | 0.00 | 0.00 | 0.00 | 92 | 1012.7 |
| 20260502100203 | 12 | 162 | 3.2 | 9.7 | 0.00 | 0.00 | 0.00 | 92 | 1012.8 |
| 20260502091204 | 11 | 204 | 3.2 | 8.0 | 0.00 | 0.00 | 0.00 | 94 | 1013.0 |
| 20260502090705 | 11 | 121 | 1.6 | 4.8 | 0.00 | 0.00 | 0.00 | 95 | 1013.1 |
| 20260502090203 | 11 | 60 | 1.6 | 4.8 | 0.00 | 0.00 | 0.00 | 95 | 1013.2 |
| 20260502071203 | 10 | 93 | 0.0 | 0.0 | 0.00 | 0.00 | 0.00 | 96 | 1013.1 |
| 20260502070704 | 10 | 93 | 0.0 | 0.0 | 0.00 | 0.00 | 0.00 | 95 | 1013.1 |
| 20260502070204 | 10 | 93 | 0.0 | 0.0 | 0.00 | 0.00 | 0.00 | 95 | 1013.0 |
| 20260502065704 | 10 | 93 | 0.0 | 0.0 | 0.00 | 0.00 | 0.00 | 96 | 1013.1 |
| 20260502064703 | 9 | 93 | 0.0 | 0.0 | 0.00 | 0.00 | 0.00 | 95 | 1013.1 |
| 20260502064204 | 9 | 93 | 0.0 | 0.0 | 0.00 | 0.00 | 0.00 | 95 | 1013.0 |
| 20260502063704 | 9 | 93 | 0.0 | 0.0 | 0.00 | 0.00 | 0.00 | 95 | 1013.1 |
| 20260502063203 | 8 | 93 | 0.0 | 0.0 | 0.00 | 0.00 | 0.00 | 95 | 1013.1 |
| 20260502062703 | 8 | 93 | 0.0 | 0.0 | 0.00 | 0.00 | 0.00 | 95 | 1013.1 |
| 20260502062204 | 8 | 93 | 0.0 | 0.0 | 0.00 | 0.00 | 0.00 | 95 | 1013.2 |
| 20260502061203 | 8 | 93 | 0.0 | 0.0 | 0.00 | 0.00 | 0.00 | 95 | 1013.2 |
| 20260502060703 | 7 | 93 | 0.0 | 0.0 | 0.00 | 0.00 | 0.00 | 95 | 1013.2 |
| 20260502055703 | 7 | 93 | 0.0 | 3.2 | 0.00 | 0.00 | 0.00 | 95 | 1013.2 |
| 20260502055203 | 7 | 93 | 1.6 | 3.2 | 0.00 | 0.00 | 0.00 | 95 | 1013.2 |
| 20260502054703 | 7 | 93 | 1.6 | 3.2 | 0.00 | 0.00 | 0.00 | 95 | 1013.3 |
| 20260502054203 | 7 | 93 | 1.6 | 3.2 | 0.00 | 0.00 | 0.00 | 95 | 1013.3 |
| 20260502053703 | 7 | 93 | 0.0 | 3.2 | 0.00 | 0.00 | 0.00 | 95 | 1013.4 |
| 20260502053203 | 7 | 93 | 1.6 | 3.2 | 0.00 | 0.00 | 0.00 | 95 | 1013.3 |
| 20260502052704 | 6 | 93 | 0.0 | 1.6 | 0.00 | 0.00 | 0.00 | 95 | 1013.4 |
| 20260502051704 | 6 | 93 | 0.0 | 1.6 | 0.00 | 0.00 | 0.00 | 95 | 1013.6 |
| 20260502051204 | 6 | 93 | 1.6 | 3.2 | 0.00 | 0.00 | 0.00 | 94 | 1013.5 |
| 20260502050703 | 6 | 93 | 1.6 | 3.2 | 0.00 | 0.00 | 0.00 | 95 | 1013.6 |
| 20260502045703 | 6 | 124 | 3.2 | 4.8 | 0.00 | 0.00 | 0.00 | 95 | 1013.6 |
| 20260502045203 | 6 | 95 | 3.2 | 3.2 | 0.00 | 0.00 | 0.00 | 95 | 1013.5 |
| 20260502044704 | 6 | 82 | 1.6 | 3.2 | 0.00 | 0.00 | 0.00 | 94 | 1013.6 |
| 20260502044203 | 6 | 82 | 3.2 | 3.2 | 0.00 | 0.00 | 0.00 | 94 | 1013.7 |
| 20260502043703 | 6 | 82 | 3.2 | 4.8 | 0.00 | 0.00 | 0.00 | 94 | 1013.5 |
| 20260502043203 | 5 | 79 | 3.2 | 4.8 | 0.00 | 0.00 | 0.00 | 94 | 1013.5 |
| 20260502042703 | 5 | 76 | 0.0 | 0.0 | 0.00 | 0.00 | 0.00 | 94 | 1013.6 |
| 20260502042204 | 5 | 76 | 0.0 | 0.0 | 0.00 | 0.00 | 0.00 | 94 | 1013.7 |
| 20260502041704 | 6 | 76 | 0.0 | 0.0 | 0.00 | 0.00 | 0.00 | 94 | 1013.7 |
| 20260502040703 | 6 | 76 | 0.0 | 0.0 | 0.00 | 0.00 | 0.00 | 94 | 1013.6 |
| 20260502040203 | 6 | 76 | 0.0 | 0.0 | 0.00 | 0.00 | 0.00 | 94 | 1013.6 |
| 20260502035703 | 6 | 76 | 0.0 | 0.0 | 0.00 | 0.00 | 0.00 | 94 | 1013.7 |
| 20260502035204 | 6 | 76 | 0.0 | 1.6 | 0.00 | 0.00 | 0.00 | 94 | 1013.7 |
| 20260502034705 | 6 | 76 | 1.6 | 1.6 | 0.00 | 0.00 | 0.00 | 94 | 1013.7 |
| 20260502034204 | 6 | 76 | 1.6 | 3.2 | 0.00 | 0.00 | 0.00 | 94 | 1013.6 |
| 20260502033703 | 6 | 76 | 1.6 | 1.6 | 0.00 | 0.00 | 0.00 | 94 | 1013.8 |
| 20260502032703 | 6 | 76 | 0.0 | 0.0 | 0.00 | 0.00 | 0.00 | 94 | 1014.0 |
| 20260502031703 | 6 | 76 | 1.6 | 3.2 | 0.00 | 0.00 | 0.00 | 94 | 1014.0 |
| 20260502030704 | 6 | 76 | 0.0 | 3.2 | 0.00 | 0.00 | 0.00 | 94 | 1014.0 |
| 20260502030203 | 6 | 76 | 1.6 | 3.2 | 0.00 | 0.00 | 0.00 | 94 | 1014.0 |
| 20260502025703 | 6 | 76 | 3.2 | 4.8 | 0.00 | 0.00 | 0.00 | 93 | 1014.0 |
| 20260502024703 | 7 | 76 | 0.0 | 0.0 | 0.00 | 0.00 | 0.00 | 94 | 1014.1 |
| 20260502024204 | 7 | 76 | 0.0 | 0.0 | 0.00 | 0.00 | 0.00 | 94 | 1014.1 |
| 20260502023703 | 7 | 76 | 0.0 | 0.0 | 0.00 | 0.00 | 0.00 | 94 | 1014.2 |
| 20260502023204 | 7 | 76 | 0.0 | 0.0 | 0.00 | 0.00 | 0.00 | 93 | 1014.2 |
| 20260502022703 | 7 | 76 | 0.0 | 0.0 | 0.00 | 0.00 | 0.00 | 94 | 1014.3 |
| 20260502022203 | 7 | 76 | 0.0 | 0.0 | 0.00 | 0.00 | 0.00 | 94 | 1014.3 |
| 20260502021704 | 7 | 76 | 0.0 | 0.0 | 0.00 | 0.00 | 0.00 | 93 | 1014.2 |
| 20260502021204 | 7 | 76 | 0.0 | 0.0 | 0.00 | 0.00 | 0.00 | 93 | 1014.3 |
| 20260502020703 | 7 | 76 | 0.0 | 0.0 | 0.00 | 0.00 | 0.00 | 93 | 1014.4 |
| 20260502020203 | 7 | 76 | 0.0 | 0.0 | 0.00 | 0.00 | 0.00 | 94 | 1014.3 |
| 20260502015704 | 7 | 76 | 0.0 | 0.0 | 0.00 | 0.00 | 0.00 | 94 | 1014.5 |
| 20260502014703 | 7 | 76 | 3.2 | 3.2 | 0.00 | 0.00 | 0.00 | 93 | 1014.5 |
| 20260502014204 | 7 | 76 | 3.2 | 4.8 | 0.00 | 0.00 | 0.00 | 93 | 1014.6 |
| 20260502013703 | 7 | 76 | 3.2 | 4.8 | 0.00 | 0.00 | 0.00 | 93 | 1014.7 |
| 20260502013204 | 6 | 91 | 0.0 | 0.0 | 0.00 | 0.00 | 0.00 | 93 | 1014.8 |
| 20260502012703 | 7 | 232 | 0.0 | 0.0 | 0.00 | 0.00 | 0.00 | 93 | 1014.8 |
| 20260502011704 | 7 | 232 | 0.0 | 0.0 | 0.00 | 0.00 | 0.00 | 93 | 1015.1 |
| 20260502011204 | 7 | 232 | 0.0 | 0.0 | 0.00 | 0.00 | 0.00 | 93 | 1015.1 |
| 20260502010703 | 7 | 232 | 0.0 | 0.0 | 0.00 | 0.00 | 0.00 | 93 | 1015.3 |
| 20260502010204 | 7 | 232 | 0.0 | 0.0 | 0.00 | 0.00 | 0.00 | 93 | 1015.3 |